Weather History for Biloxi, MS

Change the Weather History Date:

Wednesday, July 17, 2013

  Actual Average Record
Temperature  
Mean Temperature 80 °F -  
Max Temperature 88 °F 90 °F 97 °F (1951)
Min Temperature 73 °F 73 °F 66 °F (1967)
Cooling Degree Days 16    
Growing Degree Days 30 (Base 50)    
Moisture  
Dew Point 74 °F    
Average Humidity 79    
Maximum Humidity 94    
Minimum Humidity 64    
Precipitation  
Precipitation 0.00 in - - ()
Sea Level Pressure  
Sea Level Pressure 30.18 in    
Wind  
Wind Speed 6 mph (SE)    
Max Wind Speed 14 mph    
Max Gust Speed -    
Visibility 10 miles    
Events Rain , Thunderstorm    
Averages and records for this station are not official NWS values.
T = Trace of Precipitation, MM = Missing Value Source: NWS Daily Summary

Daily Weather History Graph

Daily Weather History Graph

Search for Another Location

Airport:

Trip Planner

Search our weather history database for the weather conditions in past years. The results will help you decide how hot, cold, wet, or windy it might be!

Date:

Astronomy

Jul. 17, 2013 Rise Set
Actual Time 6:05 AM CDT 7:58 PM CDT
Civil Twilight 5:38 AM CDT 8:25 PM CDT
Nautical Twilight 5:05 AM CDT 8:57 PM CDT
Astronomical Twilight 4:31 AM CDT 9:32 PM CDT
Moon 2:52 PM CDT 1:04 AM CDT
Length of Visible Light 14h 46m
Length of Day
13h 53m
Waxing Gibbous, 67% of the Moon is Illuminated
Jul 17
Waxing Gibbous
Jul 22
Full
Jul 29
Last Quarter
Aug 6
New
Aug 14
First Quarter

Hourly Weather History & Observations

Time (CDT) Temp. Heat Index Dew Point Humidity Pressure Visibility Wind Dir Wind Speed Gust Speed Precip Events Conditions
12:58 AM 76.1 °F - 73.9 °F 93% 30.19 in 10.0 mi ENE 5.8 mph - N/A   Clear
1:58 AM 75.4 °F - 73.4 °F 94% 30.19 in 10.0 mi ENE 5.8 mph - N/A   Clear
2:58 AM 75.0 °F - 73.0 °F 94% 30.19 in 10.0 mi ENE 6.9 mph - N/A   Clear
3:58 AM 74.7 °F - 72.5 °F 93% 30.17 in 10.0 mi NE 5.8 mph - N/A   Clear
4:58 AM 73.8 °F - 71.6 °F 93% 30.18 in 10.0 mi ENE 8.1 mph - N/A   Clear
5:58 AM 73.6 °F - 71.4 °F 93% 30.19 in 10.0 mi ENE 5.8 mph - N/A   Clear
6:58 AM 74.1 °F - 72.0 °F 93% 30.20 in 10.0 mi ENE 5.8 mph - N/A   Clear
7:58 AM 78.1 °F - 72.9 °F 84% 30.21 in 10.0 mi ENE 8.1 mph - N/A   Clear
8:58 AM 81.5 °F 87.4 °F 74.3 °F 79% 30.22 in 10.0 mi East 6.9 mph - N/A   Clear
9:58 AM 84.4 °F 92.4 °F 74.8 °F 73% 30.21 in 10.0 mi ENE 8.1 mph - N/A   Clear
10:58 AM 86.7 °F 94.1 °F 73.0 °F 64% 30.22 in 10.0 mi East 6.9 mph - N/A   Clear
11:58 AM 88.3 °F 98.9 °F 75.6 °F 66% 30.22 in 10.0 mi SE 10.4 mph - N/A   Scattered Clouds
12:58 PM 86.2 °F 94.6 °F 74.7 °F 68% 30.21 in 10.0 mi SSE 12.7 mph - N/A   Scattered Clouds
1:58 PM 87.8 °F 96.6 °F 74.1 °F 64% 30.20 in 10.0 mi SSE 13.8 mph - N/A   Clear
2:58 PM 87.8 °F 99.1 °F 76.3 °F 69% 30.18 in 10.0 mi South 10.4 mph - N/A   Partly Cloudy
3:58 PM 84.2 °F 91.6 °F 74.1 °F 72% 30.16 in 10.0 mi South 11.5 mph - N/A   Scattered Clouds
4:55 PM 84.2 °F 90.9 °F 73.4 °F 70% 30.15 in 10.0 mi SSW 8.1 mph - N/A Thunderstorm Thunderstorm
4:58 PM 84.2 °F 90.9 °F 73.4 °F 70% 30.16 in 10.0 mi SSW 6.9 mph - N/A Thunderstorm Thunderstorm
5:10 PM 84.2 °F 90.9 °F 73.4 °F 70% 30.15 in 10.0 mi SSW 6.9 mph - N/A Thunderstorm Partly Cloudy
5:19 PM 84.2 °F 90.9 °F 73.4 °F 70% 30.14 in 8.0 mi South 5.8 mph - N/A Rain , Thunderstorm Light Rain
5:34 PM 82.4 °F 88.2 °F 73.4 °F 74% 30.14 in 10.0 mi SSW 2.3 mph - N/A   Mostly Cloudy
5:58 PM 82.9 °F 88.5 °F 72.9 °F 71% 30.13 in 10.0 mi South 4.6 mph - 0.00 in   Partly Cloudy
6:58 PM 82.2 °F 87.1 °F 71.8 °F 71% 30.13 in 10.0 mi South 3.5 mph - N/A   Clear
7:58 PM 81.0 °F 85.2 °F 72.0 °F 74% 30.14 in 10.0 mi Calm Calm - N/A   Clear
8:58 PM 80.1 °F 85.4 °F 75.7 °F 87% 30.16 in 10.0 mi Calm Calm - N/A   Clear
9:58 PM 78.4 °F - 75.4 °F 90% 30.16 in 10.0 mi Calm Calm - N/A   Clear
10:58 PM 77.4 °F - 74.3 °F 90% 30.16 in 10.0 mi Calm Calm - N/A   Clear
11:58 PM 76.8 °F - 73.8 °F 90% 30.16 in 10.0 mi Calm Calm - N/A   Clear